Terminal Aerodrome Forecast
Issued by NWS Billings, MT

Home | Current Version | Previous Version | Text Only | Print | Product List | Glossary On
Versions: 1 2 3 4 5 6 7 8 9 10 11 12 13 14 15 16 17 18 19 20 21 22 23 24 25 26 27 28 29 30
000
FTUS45 KBYZ 242320
TAFSHR
TAF
KSHR 242320Z 2500/2524 29015G30KT P6SM BKN150
     FM250200 35006KT P6SM SKC
     FM250600 VRB05KT P6SM SKC
     FM252100 32010G22KT P6SM SKC=

USA.gov is the U.S. government's official web portal to all federal, state and local government web resources and services.